{"data":{"norad_id":45047,"epoch":"2026-09-20T01:22:04.641024Z","epoch_age_seconds":52689,"freshness":"FRESH","line1":"1 45047U 20006D   26263.05699816  .00038061  00000+0  35766-3 0  9998","line2":"2 45047  53.1490  68.8898 0002905 143.2416 216.8800 15.66789347366712","mean_motion":15.66789347,"eccentricity":0.0002905,"inclination_deg":53.149,"raan_deg":68.8898,"arg_perigee_deg":143.2416,"mean_anomaly_deg":216.88,"bstar":0.00035766,"rev_number":36671,"period_min":91.907696638175,"perigee_km":366.13774065928,"apogee_km":370.05730291644,"semimajor_km":6746.2345217879,"source":"CELESTRAK","updated_at":"2026-09-20T09:00:38.222420Z"}}